H1 CPF 2 NER 2022 8 25 9 237 01 glonass127 H2 1106403 9127 37869 2022 8 25 0 0 0 2022 8 28 23 45 0 900 1 1 0 0 0 1 H9 10 0 59816 0.00000 0 -21961863.648 8946475.689 9487804.978 10 0 59816 900.00000 0 -20788484.238 8292106.779 12316838.609 10 0 59816 1800.00000 0 -19407272.487 7344953.373 14907695.788 10 0 59816 2700.00000 0 -17878306.722 6095985.402 17210424.384 10 0 59816 3600.00000 0 -16264187.987 4548745.024 19180659.809 10 0 59816 4500.00000 0 -14627440.399 2719452.340 20780458.214 10 0 59816 5400.00000 0 -13027938.056 636585.564 21979007.454 10 0 59816 6300.00000 0 -11520463.661 -1660047.447 22753204.243 10 0 59816 7200.00000 0 -10152498.299 -4120708.902 23088088.078 10 0 59816 8100.00000 0 -8962332.105 -6687545.957 22977124.947 10 0 59816 9000.00000 0 -7977572.479 -9296748.107 22422335.953 10 0 59816 9900.00000 0 -7214110.596 -11880960.546 21434268.348 10 0 59816 10800.00000 0 -6675588.469 -14371856.627 20031808.761 10 0 59816 11700.00000 0 -6353388.850 -16702765.672 18241840.739 10 0 59816 12600.00000 0 -6227149.113 -18811249.513 16098751.272 10 0 59816 13500.00000 0 -6265778.935 -20641522.550 13643793.422 10 0 59816 14400.00000 0 -6428940.835 -22146615.602 10924314.851 10 0 59816 15300.00000 0 -6668933.188 -23290193.338 7992864.745 10 0 59816 16200.00000 0 -6932898.101 -24047948.641 4906194.288 10 0 59816 17100.00000 0 -7165262.227 -24408513.995 1724168.322 10 0 59816 18000.00000 0 -7310307.936 -24373849.628 -1491391.626 10 0 59816 18900.00000 0 -7314765.771 -23959089.862 -4677910.834 10 0 59816 19800.00000 0 -7130317.229 -23191851.914 -7773287.667 10 0 59816 20700.00000 0 -6715899.861 -22111034.365 -10717117.635 10 0 59816 21600.00000 0 -6039714.338 -20765154.641 -13451889.905 10 0 59816 22500.00000 0 -5080845.373 -19210294.935 -15924131.031 10 0 59816 23400.00000 0 -3830424.617 -17507743.336 -18085471.424 10 0 59816 24300.00000 0 -2292283.182 -15721430.376 -19893611.740 10 0 59816 25200.00000 0 -483063.435 -13915270.354 -21313168.390 10 0 59816 26100.00000 0 1568216.884 -12150521.065 -22316380.050 10 0 59816 27000.00000 0 3821131.369 -10483274.796 -22883660.225 10 0 59816 27900.00000 0 6225302.676 -8962187.574 -23003984.325 10 0 59816 28800.00000 0 8722290.078 -7626543.295 -22675103.450 10 0 59816 29700.00000 0 11247827.211 -6504734.466 -21903580.923 10 0 59816 30600.00000 0 13734315.361 -5613223.104 -20704651.445 10 0 59816 31500.00000 0 16113466.716 -4956024.375 -19101906.628 10 0 59816 32400.00000 0 18318985.956 -4524732.791 -17126814.298 10 0 59816 33300.00000 0 20289177.151 -4299087.375 -14818082.411 10 0 59816 34200.00000 0 21969366.506 -4248049.103 -12220881.659 10 0 59816 35100.00000 0 23314039.801 -4331342.073 -9385943.607 10 0 59816 36000.00000 0 24288606.003 -4501390.340 -6368553.561 10 0 59816 36900.00000 0 24870714.685 -4705565.909 -3227459.366 10 0 59816 37800.00000 0 25051074.256 -4888650.705 -23718.676 10 0 59816 38700.00000 0 24833739.275 -4995406.928 3180491.988 10 0 59816 39600.00000 0 24235857.545 -4973146.373 6323082.595 10 0 59816 40500.00000 0 23286890.322 -4774190.162 9343245.961 10 0 59816 41400.00000 0 22027340.664 -4358115.618 12182622.431 10 0 59816 42300.00000 0 20507045.029 -3693696.669 14786411.214 10 0 59816 43200.00000 0 18783100.663 -2760457.418 17104408.438 10 0 59816 44100.00000 0 16917515.674 -1549774.892 19091953.737 10 0 59816 45000.00000 0 14974679.285 -65485.841 20710769.171 10 0 59816 45900.00000 0 13018756.382 1676027.304 21929676.558 10 0 59816 46800.00000 0 11111112.853 3646274.992 22725181.477 10 0 59816 47700.00000 0 9307876.513 5805606.230 23081914.473 10 0 59816 48600.00000 0 7657732.536 8104623.653 22992922.296 10 0 59816 49500.00000 0 6200042.661 10486011.564 22459804.245 10 0 59816 50400.00000 0 4963364.489 12886703.760 21492690.975 10 0 59816 51300.00000 0 3964431.119 15240304.286 20110065.462 10 0 59816 52200.00000 0 3207632.956 17479663.667 18338428.108 10 0 59816 53100.00000 0 2685023.518 19539506.238 16211810.540 10 0 59816 54000.00000 0 2376849.718 21359001.504 13771145.101 10 0 59816 54900.00000 0 2252585.781 22884173.759 11063499.678 10 0 59816 55800.00000 0 2272429.002 24070049.852 8141190.274 10 0 59816 56700.00000 0 2389196.039 24882454.856 5060786.273 10 0 59816 57600.00000 0 2550541.177 25299379.132 1882026.015 10 0 59816 58500.00000 0 2701403.723 25311857.424 -1333337.323 10 0 59816 59400.00000 0 2786581.144 24924320.676 -4522737.481 10 0 59816 60300.00000 0 2753318.285 24154403.245 -7624020.845 10 0 59816 61200.00000 0 2553801.454 23032211.286 -10576671.206 10 0 59816 62100.00000 0 2147449.405 21599081.234 -13323008.202 10 0 59816 63000.00000 0 1502901.282 19905879.430 -15809334.232 10 0 59816 63900.00000 0 599614.275 18010914.013 -17987005.274 10 0 59816 64800.00000 0 -570999.843 15977547.240 -19813402.702 10 0 59816 65700.00000 0 -2004950.266 13871609.597 -21252785.209 10 0 59816 66600.00000 0 -3685583.577 11758725.836 -22277002.521 10 0 59816 67500.00000 0 -5584046.462 9701666.868 -22866055.820 10 0 59816 68400.00000 0 -7660276.323 7757840.247 -23008493.154 10 0 59816 69300.00000 0 -9864478.530 5977025.839 -22701631.835 10 0 59816 70200.00000 0 -12139027.960 4399452.354 -21951603.680 10 0 59816 71100.00000 0 -14420714.327 3054295.364 -20773222.810 10 0 59816 72000.00000 0 -16643235.935 1958659.079 -19189679.559 10 0 59816 72900.00000 0 -18739836.168 1117082.957 -17232067.723 10 0 59816 73800.00000 0 -20645971.174 521591.493 -14938755.830 10 0 59816 74700.00000 0 -22301896.093 152282.233 -12354616.369 10 0 59816 75600.00000 0 -23655061.259 -21576.017 -9530129.647 10 0 59816 76500.00000 0 -24662218.261 -39984.442 -6520381.395 10 0 59816 77400.00000 0 -25291148.492 49736.231 -3383975.223 10 0 59816 78300.00000 0 -25521943.357 195202.744 -181882.391 10 0 59816 79200.00000 0 -25347784.526 341435.448 3023747.788 10 0 59816 80100.00000 0 -24775193.892 433428.038 6170793.138 10 0 59816 81000.00000 0 -23823745.308 418711.718 9198355.962 10 0 59816 81900.00000 0 -22525252.453 249805.745 12047929.788 10 0 59816 82800.00000 0 -20922468.766 -113548.201 14664513.817 10 0 59816 83700.00000 0 -19067355.136 -702460.726 16997655.026 10 0 59816 84600.00000 0 -17018988.142 -1537358.084 19002399.652 10 0 59816 85500.00000 0 -14841195.875 -2626897.376 20640137.767 10 0 59817 0.00000 0 -12600018.839 -3967377.970 21879326.804 10 0 59817 900.00000 0 -10361098.526 -5542674.189 22696082.804 10 0 59817 1800.00000 0 -8187102.916 -7324690.499 23074628.182 10 0 59817 2700.00000 0 -6135289.170 -9274323.852 23007591.003 10 0 59817 3600.00000 0 -4255305.110 -11342893.205 22496148.924 10 0 59817 4500.00000 0 -2587317.245 -13473979.975 21550015.809 10 0 59817 5400.00000 0 -1160541.499 -15605605.672 20187270.430 10 0 59817 6300.00000 0 7763.502 -17672659.263 18434029.163 10 0 59817 7200.00000 0 912798.987 -19609476.067 16323967.067 10 0 59817 8100.00000 0 1562203.245 -21352463.266 13897694.237 10 0 59817 9000.00000 0 1975503.499 -22842664.251 11201996.959 10 0 59817 9900.00000 0 2183064.063 -24028155.526 8288955.926 10 0 59817 10800.00000 0 2224573.466 -24866175.817 5214956.369 10 0 59817 11700.00000 0 2147132.811 -25324897.118 2039607.555 10 0 59817 12600.00000 0 2003024.935 -25384761.506 -1175408.430 10 0 59817 13500.00000 0 1847258.175 -25039325.104 -4367536.663 10 0 59817 14400.00000 0 1734988.949 -24295570.996 -7474574.534 10 0 59817 15300.00000 0 1718933.366 -23173675.164 -10435897.161 10 0 59817 16200.00000 0 1846879.378 -21706232.932 -13193657.724 10 0 59817 17100.00000 0 2159407.374 -19936976.554 -15693937.489 10 0 59817 18000.00000 0 2687918.614 -17919036.875 -17887820.894 10 0 59817 18900.00000 0 3453058.043 -15712821.750 -19732372.698 10 0 59817 19800.00000 0 4463601.114 -13383600.792 -21191496.202 10 0 59817 20700.00000 0 5715854.230 -10998898.912 -22236654.100 10 0 59817 21600.00000 0 7193596.156 -8625809.335 -22847436.691 10 0 59817 22500.00000 0 8868564.255 -6328340.252 -23011965.601 10 0 59817 23400.00000 0 10701465.648 -4164907.691 -22727124.789 10 0 59817 24300.00000 0 12643470.752 -2186080.498 -21998614.531 10 0 59817 25200.00000 0 14638125.776 -432672.207 -20840827.882 10 0 59817 26100.00000 0 16623602.694 1065740.702 -19276552.986 10 0 59817 27000.00000 0 18535190.956 2291813.323 -17336508.286 10 0 59817 27900.00000 0 20307925.028 3240900.023 -15058721.158 10 0 59817 28800.00000 0 21879236.279 3920978.344 -12487763.734 10 0 59817 29700.00000 0 23191517.237 4352035.593 -9673862.521 10 0 59817 30600.00000 0 24194490.357 4564947.406 -6671900.752 10 0 59817 31500.00000 0 24847282.257 4599898.953 -3540334.579 10 0 59817 32400.00000 0 25120117.405 4504418.561 -340045.437 10 0 59817 33300.00000 0 24995561.748 4331109.371 2866848.096 10 0 59817 34200.00000 0 24469266.096 4135176.709 6018195.192 10 0 59817 35100.00000 0 23550180.280 3971856.722 9053010.981 10 0 59817 36000.00000 0 22260231.295 3893855.088 11912645.275 10 0 59817 36900.00000 0 20633480.795 3948903.389 14541900.044 10 0 59817 37800.00000 0 18714798.574 4177535.057 16890075.532 10 0 59817 38700.00000 0 16558108.128 4611173.108 18911926.621 10 0 59817 39600.00000 0 14224277.377 5270608.461 20568513.064 10 0 59817 40500.00000 0 11778741.492 6164931.379 21827929.395 10 0 59817 41400.00000 0 9288954.966 7290959.922 22665902.591 10 0 59817 42300.00000 0 6821776.552 8633189.010 23066247.763 10 0 59817 43200.00000 0 4440892.910 10164262.813 23021174.459 10 0 59817 44100.00000 0 2204384.998 11845952.088 22531438.478 10 0 59817 45000.00000 0 162535.608 13630597.752 21606336.265 10 0 59817 45900.00000 0 -1644033.320 15462963.188 20263541.372 10 0 59817 46800.00000 0 -3185817.853 17282421.033 18528784.755 10 0 59817 47700.00000 0 -4445423.999 19025386.227 16435383.164 10 0 59817 48600.00000 0 -5418053.285 20627896.439 14023622.432 10 0 59817 49500.00000 0 -6111461.191 22028234.224 11340004.987 10 0 59817 50400.00000 0 -6545389.086 23169482.456 8436373.773 10 0 59817 51300.00000 0 -6750492.097 24001906.320 5368927.277 10 0 59817 52200.00000 0 -6766806.569 24485061.346 2197142.982 10 0 59817 53100.00000 0 -6641820.372 24589537.272 -1017370.894 10 0 59817 54000.00000 0 -6428226.764 24298262.170 -4212073.579 10 0 59817 54900.00000 0 -6181456.603 23607309.109 -7324716.255 10 0 59817 55800.00000 0 -5957093.945 22526168.431 -10294568.070 10 0 59817 56700.00000 0 -5808285.849 21077471.331 -13063618.314 10 0 59817 57600.00000 0 -5783258.163 19296173.940 -15577729.493 10 0 59817 58500.00000 0 -5923045.048 17228234.452 -17787716.646 10 0 59817 59400.00000 0 -6259531.190 14928837.930 -19650329.822 10 0 59817 60300.00000 0 -6813892.383 12460243.056 -21129118.593 10 0 59817 61200.00000 0 -7595502.981 9889341.745 -22195160.019 10 0 59817 62100.00000 0 -8601358.501 7285034.917 -22827634.653 10 0 59817 63000.00000 0 -9816039.269 4715535.650 -23014238.529 10 0 59817 63900.00000 0 -11212217.408 2245714.025 -22751422.740 10 0 59817 64800.00000 0 -12751685.927 -65404.187 -22044456.119 10 0 59817 65700.00000 0 -14386866.049 -2166879.749 -20907310.325 10 0 59817 66600.00000 0 -16062728.250 -4017749.268 -19362370.539 10 0 59817 67500.00000 0 -17719044.834 -5588483.411 -17439978.644 10 0 59817 68400.00000 0 -19292877.832 -6861954.600 -15177819.257 10 0 59817 69300.00000 0 -20721196.115 -7833875.983 -12620162.224 10 0 59817 70200.00000 0 -21943510.607 -8512696.311 -9816978.034 10 0 59817 71100.00000 0 -22904416.072 -8918958.573 -6822945.023 10 0 59817 72000.00000 0 -23555932.514 -9084152.911 -3696369.311 10 0 59817 72900.00000 0 -23859548.210 -9049115.585 -498039.825 10 0 59817 73800.00000 0 -23787879.637 -8862044.560 2709958.378 10 0 59817 74700.00000 0 -23325880.067 -8576217.793 5865448.677 10 0 59817 75600.00000 0 -22471548.009 -8247512.194 8907361.935 10 0 59817 76500.00000 0 -21236107.700 -7931828.723 11776907.148 10 0 59817 77400.00000 0 -19643655.957 -7682532.115 14418691.895 10 0 59817 78300.00000 0 -17730291.568 -7548012.386 16781772.378 10 0 59817 79200.00000 0 -15542764.449 -7569469.380 18820614.599 10 0 59817 80100.00000 0 -13136701.006 -7779011.896 20495950.151 10 0 59817 81000.00000 0 -10574478.958 -8198149.521 21775512.374 10 0 59817 81900.00000 0 -7922838.394 -8836739.027 22634640.808 10 0 59817 82800.00000 0 -5250326.218 -9692428.596 23056744.103 10 0 59817 83700.00000 0 -2624677.296 -10750622.929 23033613.882 10 0 59817 84600.00000 0 -110237.936 -11984971.398 22565584.286 10 0 59817 85500.00000 0 2234464.288 -13358360.258 21661534.204 10 0 59818 0.00000 0 4358906.057 -14824369.549 20338731.647 10 0 59818 900.00000 0 6222421.681 -16329137.283 18622521.148 10 0 59818 1800.00000 0 7795645.810 -17813553.910 16545860.189 10 0 59818 2700.00000 0 9061489.907 -19215700.715 14148708.945 10 0 59818 3600.00000 0 10015608.693 -20473430.518 11477284.277 10 0 59818 4500.00000 0 10666337.423 -21526984.977 8583189.334 10 0 59818 5400.00000 0 11034101.196 -22321539.365 5522433.496 10 0 59818 6300.00000 0 11150319.609 -22809567.747 2354359.843 10 0 59818 7200.00000 0 11055851.420 -22952927.875 -859500.135 10 0 59818 8100.00000 0 10799043.708 -22724576.011 -4056622.818 10 0 59818 9000.00000 0 10433467.350 -22109836.730 -7174716.287 10 0 59818 9900.00000 0 10015434.681 -21107171.100 -10152946.856 10 0 59818 10800.00000 0 9601405.271 -19728407.738 -12933143.032 10 0 59818 11700.00000 0 9245391.236 -17998424.088 -15460951.585 10 0 59818 12600.00000 0 8996474.071 -15954288.971 -17686921.027 10 0 59818 13500.00000 0 8896540.670 -13643900.773 -19567489.330 10 0 59818 14400.00000 0 8978336.959 -11124177.568 -21065854.640 10 0 59818 15300.00000 0 9263923.955 -8458875.048 -22152710.295 10 0 59818 16200.00000 0 9763603.617 -5716124.257 -22806828.554 10 0 59818 17100.00000 0 10475361.453 -2965793.189 -23015480.820 10 0 59818 18000.00000 0 11384850.266 -276783.967 -22774685.793 10 0 59818 18900.00000 0 12465915.940 2285620.257 -22089280.856 10 0 59818 19800.00000 0 13681642.621 4662246.940 -20972815.814 10 0 59818 20700.00000 0 14985872.135 6802259.750 -19447272.006 10 0 59818 21600.00000 0 16325132.213 8665025.510 -17542613.477 10 0 59818 22500.00000 0 17640890.566 10221545.518 -15296180.417 10 0 59818 23400.00000 0 18872038.153 11455393.215 -12751938.334 10 0 59818 24300.00000 0 19957495.535 12363121.567 -9959599.292 10 0 59818 25200.00000 0 20838831.432 12954126.281 -6973633.976 10 0 59818 26100.00000 0 21462782.525 13249974.050 -3852195.450 10 0 59818 27000.00000 0 21783568.449 13283227.693 -655976.904 10 0 59818 27900.00000 0 21764905.066 13095820.956 2552973.442 10 0 59818 28800.00000 0 21381632.473 12737054.288 5712456.490 10 0 59818 29700.00000 0 20620890.819 12261298.193 8761322.026 10 0 59818 30600.00000 0 19482796.277 11725502.291 11640641.224 10 0 59818 31500.00000 0 17980590.531 11186615.425 14294829.998 10 0 59818 32400.00000 0 16140258.959 10699025.068 16672702.940 10 0 59818 33300.00000 0 13999634.362 10312122.603 18728439.276 10 0 59818 34200.00000 0 11607024.011 10068095.222 20422444.225 10 0 59818 35100.00000 0 9019416.670 10000035.259 21722091.394 10 0 59818 36000.00000 0 6300342.856 10130444.487 22602334.005 10 0 59818 36900.00000 0 3517475.284 10470194.571 23046175.026 10 0 59818 37800.00000 0 740066.399 11017986.332 23044988.548 10 0 59818 38700.00000 0 -1963673.754 11760330.355 22598687.058 10 0 59818 39600.00000 0 -4529153.600 12672050.435 21715731.471 10 0 59818 40500.00000 0 -6897826.202 13717290.346 20412983.143 10 0 59818 41400.00000 0 -9019367.345 14850983.973 18715399.405 10 0 59818 42300.00000 0 -10853516.772 16020729.876 16655576.638 10 0 59818 43200.00000 0 -12371507.120 17168994.467 14273147.416 10 0 59818 44100.00000 0 -13557021.193 18235553.959 11614040.824 10 0 59818 45000.00000 0 -14406637.042 19160074.587 8729617.839 10 0 59818 45900.00000 0 -14929741.140 19884723.902 5675696.228 10 0 59818 46800.00000 0 -15147911.817 20356703.592 2511482.075 10 0 59818 47700.00000 0 -15093797.251 20530596.446 -701572.491 10 0 59818 48600.00000 0 -14809533.918 20370426.859 -3900963.676 10 0 59818 49500.00000 0 -14344771.229 19851345.547 -7024359.132 10 0 59818 50400.00000 0 -13754385.428 18960864.348 -10010824.985 10 0 59818 51300.00000 0 -13095979.787 17699585.787 -12802031.529 10 0 59818 52200.00000 0 -12427277.937 16081393.377 -15343412.236 10 0 59818 53100.00000 0 -11803522.301 14133091.821 -17585251.348 10 0 59818 54000.00000 0 -11274989.931 11893509.937 -19483676.789 10 0 59818 54900.00000 0 -10884733.146 9412102.442 -21001537.071 10 0 59818 55800.00000 0 -10666642.907 6747108.619 -22109143.324 10 0 59818 56700.00000 0 -10643918.810 3963344.999 -22784860.740 10 0 59818 57600.00000 0 -10828011.926 1129725.104 -23015537.009 10 0 59818 58500.00000 0 -11218086.067 -1683388.914 -22796759.010 10 0 59818 59400.00000 0 -11801020.446 -4406890.918 -22132932.872 10 0 59818 60300.00000 0 -12551953.166 -6975577.686 -21037186.342 10 0 59818 61200.00000 0 -13435341.517 -9330626.736 -19531096.296 10 0 59818 62100.00000 0 -14406492.777 -11421801.495 -17644247.918 10 0 59818 63000.00000 0 -15413499.067 -13209292.269 -15413635.567 10 0 59818 63900.00000 0 -16399492.658 -14665117.320 -12882918.694 10 0 59818 64800.00000 0 -17305124.721 -15774027.558 -10101548.947 10 0 59818 65700.00000 0 -18071161.390 -16533879.767 -7123787.164 10 0 59818 66600.00000 0 -18641086.528 -16955465.850 -4007631.001 10 0 59818 67500.00000 0 -18963600.905 -17061808.834 -813675.420 10 0 59818 68400.00000 0 -18994912.525 -16886958.625 2396070.797 10 0 59818 69300.00000 0 -18700722.280 -16474341.279 5559388.774 10 0 59818 70200.00000 0 -18057822.500 -15874733.831 8615050.005 10 0 59818 71100.00000 0 -17055242.655 -15143951.704 11503990.661 10 0 59818 72000.00000 0 -15694895.645 -14340346.935 14170437.811 10 0 59818 72900.00000 0 -13991699.049 -13522222.460 16562967.159 10 0 59818 73800.00000 0 -11973167.206 -12745270.339 18635473.722 10 0 59818 74700.00000 0 -9678491.726 -12060140.036 20348038.672 10 0 59818 75600.00000 0 -7157148.430 -11510236.858 21667677.893 10 0 59818 76500.00000 0 -4467087.654 -11129840.776 22568959.967 10 0 59818 77400.00000 0 -1672581.322 -10942622.509 23034483.473 10 0 59818 78300.00000 0 1158186.316 -10960617.452 23055205.905 10 0 59818 79200.00000 0 3955687.368 -11183699.552 22630618.672 10 0 59818 80100.00000 0 6651674.979 -11599577.027 21768764.958 10 0 59818 81000.00000 0 9181758.329 -12184310.885 20486099.521 10 0 59818 81900.00000 0 11487823.912 -12903336.054 18807191.860 10 0 59818 82800.00000 0 13520204.652 -13712944.423 16764276.637 10 0 59818 83700.00000 0 15239508.127 -14562170.082 14396657.751 10 0 59818 84600.00000 0 16618028.341 -15395000.062 11749975.057 10 0 59818 85500.00000 0 17640681.831 -16152819.856 8875345.485 10 0 59819 0.00000 0 18305428.019 -16776992.331 5828393.198 10 0 59819 900.00000 0 18623155.030 -17211462.461 2668184.065 10 0 59819 1800.00000 0 18617033.222 -17405277.044 -543911.863 10 0 59819 2700.00000 0 18321363.195 -17314912.984 -3745413.843 10 0 59819 3600.00000 0 17779964.436 -16906312.871 -6873952.456 10 0 59819 4500.00000 0 17044172.215 -16156539.473 -9868497.041 10 0 59819 5400.00000 0 16170527.044 -15054975.963 -12670563.025 10 0 59819 6300.00000 0 15218254.920 -13604017.821 -15225373.805 10 0 59819 7200.00000 0 14246646.091 -11819224.064 -17482952.382 10 0 59819 8100.00000 0 13312444.931 -9728918.622 -19399119.417 10 0 59819 9000.00000 0 12467363.329 -7373256.489 -20936376.237 10 0 59819 9900.00000 0 11755824.833 -4802792.586 -22064653.840 10 0 59819 10800.00000 0 11213036.850 -2076612.749 -22761911.979 10 0 59819 11700.00000 0 10863473.839 739894.699 -23014575.784 10 0 59819 12600.00000 0 10719836.541 3577532.816 -22817800.970 10 0 59819 13500.00000 0 10782531.443 6365950.037 -22175562.572 10 0 59819 14400.00000 0 11039692.015 9036342.364 -21100565.962 10 0 59819 15300.00000 0 11467739.684 11524089.850 -19613982.778 10 0 59819 16200.00000 0 12032459.233 13771216.763 -17745018.130 10 0 59819 17100.00000 0 12690541.106 15728572.752 -15530318.927 10 0 59819 18000.00000 0 13391523.297 17357644.526 -13013236.531 10 0 59819 18900.00000 0 14080048.542 18631923.841 -10242959.781 10 0 59819 19800.00000 0 14698339.498 19537776.782 -7273536.919 10 0 59819 20700.00000 0 15188785.798 20074780.662 -4162807.163 10 0 59819 21600.00000 0 15496532.678 20255517.691 -971264.004 10 0 59819 22500.00000 0 15571961.515 20104837.415 2239126.573 10 0 59819 23400.00000 0 15372957.843 19658622.102 5406129.273 10 0 59819 24300.00000 0 14866872.021 18962109.813 8468440.561 10 0 59819 25200.00000 0 14032091.184 18067847.786 11366864.691 10 0 59819 26100.00000 0 12859157.800 17033363.512 14045442.704 10 0 59819 27000.00000 0 11351389.269 15918651.812 16452513.963 10 0 59819 27900.00000 0 9524973.666 14783582.933 18541691.491 10 0 59819 28800.00000 0 7408538.353 13685339.219 20272734.307 10 0 59819 29700.00000 0 5042209.375 12675985.920 21612302.145 10 0 59819 30600.00000 0 2476200.047 11800275.704 22534580.155 10 0 59819 31500.00000 0 -231014.081 11093776.495 23021763.385 10 0 59819 32400.00000 0 -3014860.365 10581398.905 23064393.196 10 0 59819 33300.00000 0 -5807087.347 10276383.304 22661539.970 10 0 59819 34200.00000 0 -8538338.923 10179788.052 21820828.768 10 0 59819 35100.00000 0 -11140780.941 10280500.228 20558306.911 10 0 59819 36000.00000 0 -13550674.219 10555769.193 18898154.790 10 0 59819 36900.00000 0 -15710789.587 10972242.113 16872243.654 10 0 59819 37800.00000 0 -17572566.348 11487460.001 14519546.682 10 0 59819 38700.00000 0 -19097925.235 12051753.681 11885412.177 10 0 59819 39600.00000 0 -20260660.246 12610462.118 9020710.517 10 0 59819 40500.00000 0 -21047350.460 13106381.482 5980869.067 10 0 59819 41400.00000 0 -21457752.269 13482342.811 2824811.916 10 0 59819 42300.00000 0 -21504653.736 13683809.724 -386176.184 10 0 59819 43200.00000 0 -21213195.322 13661385.778 -3589640.211 10 0 59819 44100.00000 0 -20619683.803 13373123.837 -6723176.315 10 0 59819 45000.00000 0 -19769948.053 12786537.371 -9725659.648 10 0 59819 45900.00000 0 -18717305.349 11880225.639 -12538453.304 10 0 59819 46800.00000 0 -17520224.041 10645040.695 -15106573.017 10 0 59819 47700.00000 0 -16239782.004 9084743.577 -17379782.790 10 0 59819 48600.00000 0 -14937029.536 7216118.921 -19313598.015 10 0 59819 49500.00000 0 -13670369.775 5068540.509 -20870174.561 10 0 59819 50400.00000 0 -12493069.191 2683004.221 -22019064.678 10 0 59819 51300.00000 0 -11451005.082 110667.813 -22737823.733 10 0 59819 52200.00000 0 -10580746.643 -2589041.598 -23012454.974 10 0 59819 53100.00000 0 -9908051.626 -5350672.699 -22837683.263 10 0 59819 54000.00000 0 -9446842.332 -8105253.119 -22217052.478 10 0 59819 54900.00000 0 -9198703.746 -10782944.808 -21162845.182 10 0 59819 55800.00000 0 -9152923.917 -13315739.565 -19695826.983 10 0 59819 56700.00000 0 -9287073.116 -15640081.275 -17844821.792 10 0 59819 57600.00000 0 -9568095.107 -17699304.873 -15646127.650 10 0 59819 58500.00000 0 -9953861.939 -19445790.250 -13142786.177 10 0 59819 59400.00000 0 -10395123.996 -20842741.944 -10383721.550 10 0 59819 60300.00000 0 -10837770.450 -21865521.779 -7422767.457 10 0 59819 61200.00000 0 -11225302.513 -22502480.861 -4317602.602 10 0 59819 62100.00000 0 -11501413.405 -22755258.902 -1128616.877 10 0 59819 63000.00000 0 -11612565.051 -22638541.390 2082268.741 10 0 59819 63900.00000 0 -11510452.478 -22179287.926 5252804.823 10 0 59819 64800.00000 0 -11154252.213 -21415467.056 8321615.170 10 0 59819 65700.00000 0 -10512560.828 -20394353.102 11229374.557 10 0 59819 66600.00000 0 -9564943.223 -19170458.233 13919940.480 10 0 59819 67500.00000 0 -8303026.934 -17803187.379 16341418.424 10 0 59819 68400.00000 0 -6731097.727 -16354314.271 18447141.825 10 0 59819 69300.00000 0 -4866172.427 -14885383.465 20196549.810 10 0 59819 70200.00000 0 -2737546.182 -13455145.427 21555948.013 10 0 59819 71100.00000 0 -385832.551 -12117129.782 22499139.959 10 0 59819 72000.00000 0 2138464.776 -10917455.734 23007918.685 10 0 59819 72900.00000 0 4776791.271 -9892968.735 23072410.632 10 0 59819 73800.00000 0 7464718.147 -9069779.094 22691266.066 10 0 59819 74700.00000 0 10134368.841 -8462262.119 21871692.534 10 0 59819 75600.00000 0 12716998.031 -8072560.713 20629330.234 10 0 59819 76500.00000 0 15145619.260 -7890611.276 18987970.441 10 0 59819 77400.00000 0 17357574.702 -7894692.606 16979120.672 10 0 59819 78300.00000 0 19296942.355 -8052476.226 14641422.705 10 0 59819 79200.00000 0 20916681.695 -8322535.899 12019932.214 10 0 59819 80100.00000 0 22180428.636 -8656254.863 9165271.504 10 0 59819 81000.00000 0 23063864.289 -9000052.291 6132669.454 10 0 59819 81900.00000 0 23555598.996 -9297836.449 2980905.401 10 0 59819 82800.00000 0 23657532.654 -9493581.611 -228823.762 10 0 59819 83700.00000 0 23384674.173 -9533919.610 -3434091.882 10 0 59819 84600.00000 0 22764425.528 -9370635.257 -6572464.053 10 0 59819 85500.00000 0 21835358.760 -8962958.057 -9582724.708 99